Location: Heppenheim
(49.6410°N, 8.6370°E)
Time: 02:24:55
(UTC+02:00)

ISS - Visible Passes

Search period start: 12 July 2025 00:00
Search period end: 22 July 2025 00:00
Orbit: 413 x 417 km, 51.6° (Epoch: 11 July)

Date Brightness Start Highest point End Pass type
(mag) Time Alt. Az. Time Alt. Az. Time Alt. Az.
12 Jul -3.5 01:12:31 10° WNW 01:15:52 69° N 01:19:13 10° E visible
12 Jul -3.2 02:49:20 10° W 02:52:03 38° SW 02:52:03 38° SW visible
12 Jul -3.6 22:46:43 10° WSW 22:50:04 78° NNW 22:53:26 10° ENE visible
13 Jul -3.3 00:23:39 10° WNW 00:26:59 61° N 00:30:18 10° E visible
13 Jul -3.6 02:00:26 10° WNW 02:03:20 53° WSW 02:03:20 53° WSW visible
13 Jul -3.2 23:34:44 10° W 23:38:03 59° N 23:41:23 10° E visible
14 Jul -3.9 01:11:33 10° WNW 01:14:54 80° SSW 01:15:20 64° SE visible
14 Jul -3.2 22:45:48 10° W 22:49:08 60° N 22:52:27 10° ENE visible
15 Jul -3.8 00:22:40 10° WNW 00:26:02 80° NNE 00:27:34 29° E visible
15 Jul -1.5 01:59:34 10° W 02:00:24 15° W 02:00:24 15° W visible
15 Jul -3.5 23:33:46 10° WNW 23:37:06 67° N 23:39:58 13° E visible
16 Jul -2.7 01:10:33 10° WNW 01:12:47 33° WSW 01:12:47 33° WSW visible
16 Jul -3.2 22:44:50 10° WNW 22:48:09 60° N 22:51:29 10° E visible
17 Jul -3.8 00:21:36 10° WNW 00:24:56 62° SSW 00:25:15 58° S visible
17 Jul -3.9 23:32:41 10° WNW 23:36:03 85° SSW 23:37:46 26° ESE visible
18 Jul -1.4 01:09:47 10° W 01:10:37 15° W 01:10:37 15° W visible
18 Jul -3.7 22:43:45 10° WNW 22:47:06 77° NNE 22:50:19 11° E visible
19 Jul -2.7 00:20:38 10° W 00:23:10 30° SW 00:23:10 30° SW visible
19 Jul -3.4 23:31:34 10° WNW 23:34:49 47° SSW 23:35:45 35° SSE visible
20 Jul -3.7 22:42:35 10° WNW 22:45:55 67° SSW 22:48:22 17° ESE visible
21 Jul -1.5 00:20:02 10° W 00:21:13 14° WSW 00:21:13 14° WSW visible
21 Jul -2.3 23:30:38 10° W 23:33:23 24° SW 23:33:52 23° SSW visible
